Starlink 30433

operational
NORAD ID: 57878 Int'l Des: 2023-144 Owner: SPXS Country: US Constellation: starlink
LEOCIRCULAR

Über Starlink 30433

Beschreibung wird geladen...

Live-Position

3D-Globus wird geladen...

Nächste Überflüge

Höhenverlauf

Altitude vs Time

uPlot chart will show altitude changes over time

Zweizeiliger Elementsatz

1 57878U 23144Q 25306.13854272 .00000142 00000-0 25594-4 0 9993
2 57878 43.0037 260.5529 0001047 275.8642 84.2081 15.02532847118425
Epoch: 2. Nov. 2025 • Age: 26 hours

Aktueller Status

Höhe 558.2 km
Geschwindigkeit 7.59 km/s
Subsatellitenpunkt 14.40°N, 153.73°E
Startdatum 16. Sept. 2023
Alter 2.1 years
Typ internet

Technische Details

Klassifizierung Payload
Masse 730.00 kg
Trockenmasse 700.00 kg
Gesamtmasse 730.00 kg
Länge 0.30 m
Durchmesser 4.10 m
Spannweite 29.00 m
Form Box + pan
Hersteller SPXS
Bus-Typ Starlink V2M
Phasenstatus In Orbit
Besitzer/Staat SPXS/US

Große Konstellationen

Loading constellations...